STARLINK-5175, 54079

Orbit data source: Space-Track

STARLINK-5175, 54079 is a payload satellite owned by SpaceX/Seattle (US) in LEO that was launched on Thu, 20 Oct 2022 UTC via an FALCON 9 launch vehicle from the Air Force Eastern Test Range (AFETR). Payload-class satellites include a variety of spacecraft equipped with specific instruments for various scientific and technological missions. These include communications satellites like Starlink; space stations such as the ISS; scientific satellites like the Hubble; Earth observation satellites from companies like Planet Labs, Umbra, and HawkEye 360; GPS; miniature CubeSats for education and research; and military/defense satellites.

Loading next visibility...
Identifier
54079, 2022-136AE
Orbit
LEO
Country
Flag of USUS
Related business
Manufacturer
SpaceX/Seattle
Mission
Operational Commercial Communications
Bus & Motor
STARLINK, Unknown motor
Mass
305 kg wet, ~290 kg dry
Launch date (UTC)
2022-10-20 (3 years ago)
Launch vehicle
FALCON 9
Launch site
Air Force Eastern Test Range (AFETR)
Object type
Payload
Rocket body
Debris
Shape & HBR
Box + 1 Pan, 4.4 m
Radar Cross Section
13.562 m², Large (>1 m²)

Expand to show TLE details & history
Last TLE update: 21 hours ago

TLE from 21 hours ago
0 STARLINK-5175
1 54079U 22136AE  25260.62251065 -.00000470  00000-0 -11440-4 0  9998
2 54079  53.2178  31.2716 0001165  79.8912 280.2212 15.08837462160853
Epoch: 2025-09-17T14:56Z
TLE epoch observation values (Epoch: 2025-09-17T14:56:24.92Z)
Latitude
0.00003°
Longitude
170.37198°
Altitude
540.506 km
Speed
7.593 km/s
True Right ascension
02h 05m 05s
True Declination
0° 00' 00"
Sunlit
Object was in full shadow at epoch
Visualization orbit readout
Latitude
Unknown
Longitude
Unknown
Altitude
Unknown
Speed
Unknown
Apparent Right ascension
Unknown
Apparent Declination
Unknown
Sunlit
N/A
Visualization observer readout
Local Sidereal Time
05:02:38
Azimuth
Unknown
Elevation
Unknown
Doppler factor
Unknown
Orbital elements
Apogee altitude
540.802 km
Perigee altitude
539.19 km
Semi-major axis
6,918.133 km
Eccentricity
0.00012
Inclination
53.2178°
RAAN
31.2716°
Arg. of periapsis
79.8912°
True anomaly
280.20806°
Mean anomaly
280.2212°
Eccentric anomaly
280.21463°
Mean motion
3.7719 °/min
Orbital period
95.44 mins
BSTAR
-0.00001144
Loading maneuver chart data...
Computing Atmospheric mass density...
Loading historical data...
Loading historical data...
Loading historical data...
Loading historical data...
Loading historical data...
Loading historical data...
Loading historical data...

Documentation

Showing up to 5 results
|